Location: Olsztyn
(53.7767°N, 20.4765°E)
Time: 09:25:04
(UTC+02:00)

ISS - Visible Passes

Search period start: 20 April 2024 00:00
Search period end: 30 April 2024 00:00
Orbit: 412 x 418 km, 51.6° (Epoch: 20 April)

Date Brightness Start Highest point End Pass type
(mag) Time Alt. Az. Time Alt. Az. Time Alt. Az.
24 Apr -1.2 03:58:38 10° SSE 03:59:40 11° SE 04:00:42 10° ESE visible
26 Apr -1.9 03:55:35 12° SSW 03:57:49 20° SSE 04:00:22 10° E visible
27 Apr -1.6 03:08:12 14° SSE 03:08:53 15° SE 03:10:50 10° ESE visible
28 Apr -2.7 03:53:34 15° SW 03:55:54 33° SSE 03:58:56 10° E visible
29 Apr -2.4 03:06:01 23° S 03:06:47 25° SSE 03:09:36 10° E visible
